Flag for Turkey Weather past 2 weeks in Ankara, Turkey

Now
46 °F

Sunny.


Feels Like: 44 °F
Forecast: 36 / 77 °F
Wind: 5 mph from Southwest

Location: Ankara / Esenboga

Current Time: Apr 27, 2015 at 8:54:29 AM

Latest Report: Apr 27, 2015 at 8:20 AM


Visibility: 10 mi

Pressure: 30.07 "Hg

Humidity: 76%

Dew point: 39 °F

Location of AnkaraLocation

Historic Weather in Ankara — Graph

°F

Ankara temperature yesterday

Maximum temperature yesterday: 59 °F (at 10:20 AM)
Minimum temperature yesterday: 37 °F (at 2:50 AM)
Average temperature yesterday: 49 °F

Past Weeks' High & Low Weather Summary

 TemperatureHumidityPressure
High68 °F (Apr 19, 3:50 PM)100% (Apr 23, 3:50 AM)30.24 "Hg (Apr 23, 3:50 AM)
Low23 °F (Apr 24, 5:50 AM)19% (Apr 25, 2:50 PM)29.77 "Hg (Apr 19, 5:50 PM)
Average46 °F59%30.04 "Hg
* Reported Apr 12 7:20 AM — Apr 27 7:20 AM, Ankara, Weather by CustomWeather, © 2015

Note: Actual official high and low records may vary slightly from our data, if they occured in-between our weather recording intervals... More about our weather records

Advertising

Ankara weather history for previous 24 hours

 ConditionsComfort  
Time TempWeatherWind HumidityBarometerVisibility
7:20 AM
Mon, Apr 27
43 °FSunny.2 mph81%30.07 "Hg10 mi
6:50 AM39 °FClear.3 mph87%30.07 "Hg10 mi
6:20 AM39 °FClear.2 mph87%30.04 "Hg10 mi
5:50 AM39 °FClear.2 mph87%30.04 "Hg10 mi
5:20 AM41 °FClear.2 mph87%30.04 "Hg10 mi
4:50 AM41 °FClear.5 mph87%30.04 "Hg10 mi
4:20 AM41 °FClear.2 mph87%30.04 "Hg10 mi
3:50 AM43 °FClear.2 mph81%30.04 "Hg10 mi
3:20 AM45 °FClear.1 mph76%30.04 "Hg10 mi
2:50 AM43 °FClear.1 mph81%30.04 "Hg10 mi
2:20 AM43 °FClear.2 mph81%30.04 "Hg10 mi
1:50 AM43 °FClear.2 mph81%30.04 "Hg10 mi
1:20 AM46 °FClear.3 mph71%30.04 "Hg10 mi
12:50 AM45 °FClear.5 mph76%30.04 "Hg10 mi
12:20 AM46 °FClear.5 mph71%30.04 "Hg10 mi
11:50 PM
Sun, Apr 26
46 °FClear.5 mph71%30.04 "Hg10 mi
11:20 PM46 °FClear.2 mph71%30.04 "Hg10 mi
10:50 PM48 °FClear.6 mph62%30.04 "Hg10 mi
10:20 PM46 °FPassing clouds.5 mph66%30.04 "HgN/A
9:50 PM46 °FPassing clouds.6 mph66%30.04 "HgN/A
9:20 PM48 °FPassing clouds.1 mph62%30.04 "HgN/A
8:50 PM48 °FPassing clouds.5 mph66%30.04 "HgN/A
8:20 PM50 °FScattered clouds.1 mph58%30.01 "HgN/A
7:50 PM54 °FScattered clouds.3 mph51%30.01 "HgN/A
7:20 PM52 °FScattered clouds.5 mph54%30.01 "HgN/A
6:50 PM55 °FScattered clouds.6 mph47%30.01 "HgN/A
6:20 PM57 °FPartly sunny.8 mph41%30.01 "HgN/A
5:50 PM55 °FPartly sunny.9 mph44%30.01 "HgN/A
5:20 PM57 °FBroken clouds.7 mph41%30.01 "HgN/A
4:50 PM57 °FBroken clouds.5 mph44%30.01 "HgN/A
4:20 PM57 °FBroken clouds.8 mph44%30.01 "HgN/A
3:50 PM57 °FBroken clouds.6 mph41%30.01 "HgN/A
3:20 PM57 °FBroken clouds.6 mph44%30.01 "HgN/A
2:50 PM55 °FBroken clouds.7 mph51%30.04 "HgN/A
2:20 PM55 °FBroken clouds.5 mph44%30.04 "HgN/A
1:50 PM55 °FBroken clouds.13 mph47%30.04 "HgN/A
1:20 PM55 °FBroken clouds.8 mph51%30.04 "HgN/A
12:50 PM55 °FBroken clouds.13 mph44%30.04 "HgN/A
12:20 PM59 °FBroken clouds.12 mph36%30.04 "HgN/A
11:50 AM59 °FBroken clouds.8 mph34%30.04 "HgN/A
11:20 AM59 °FBroken clouds.9 mph36%30.04 "HgN/A
10:50 AM59 °FPartly sunny.10 mph39%30.04 "HgN/A
10:20 AM59 °FPartly sunny.7 mph34%30.04 "HgN/A
9:50 AM57 °FPartly sunny.3 mph33%30.07 "HgN/A
9:20 AM52 °FPartly sunny.3 mph50%30.07 "HgN/A
8:50 AM50 °FPartly sunny.3 mph50%30.07 "HgN/A
8:20 AM46 °FSunny.6 mph62%30.07 "Hg10 mi
Weather by CustomWeather, © 2015

See weather overviewHow to use our weather pages